• In Hungary
  • List of Countries
  • For 7 days
  • Water Temperature
  • Satellite Maps
  • Weather Map
  • News
  • Weather Widgets
  • user-avatar
    Login

    Hourly Weather Zarkovo

    Today, 28 May, Monday

    Time Temperature Precipitation Wind Pressure Humidity
    00:00 +9°C° 0 mm 2 mps 753 mmHg 47%
    01:00 +8°C° 0 mm 2 mps 753 mmHg 51%
    02:00 +7°C° 0 mm 2 mps 754 mmHg 54%
    03:00 +7°C° 0 mm 2 mps 754 mmHg 54%
    04:00 +7°C° 0 mm 2 mps 755 mmHg 54%
    05:00 +8°C° 0 mm 2 mps 755 mmHg 54%
    06:00 +9°C° 0 mm 2 mps 756 mmHg 48%
    07:00 +12°C° 0 mm 2 mps 756 mmHg 43%
    08:00 +14°C° 0 mm 2 mps 757 mmHg 37%
    09:00 +15°C° 0 mm 2 mps 757 mmHg 34%
    10:00 +16°C° 0 mm 2 mps 757 mmHg 32%
    11:00 +18°C° 0 mm 2 mps 757 mmHg 29%
    12:00 +18°C° 0 mm 2 mps 756 mmHg 28%
    13:00 +19°C° 0 mm 2 mps 756 mmHg 28%
    14:00 +20°C° 0 mm 2 mps 756 mmHg 28%
    15:00 +20°C° 0 mm 1 mps 756 mmHg 30%
    16:00 +20°C° 0 mm 1 mps 756 mmHg 32%
    17:00 +20°C° 0 mm 1 mps 755 mmHg 34%
    18:00 +18°C° 0 mm 1 mps 755 mmHg 40%
    19:00 +15°C° 0 mm 1 mps 755 mmHg 47%
    20:00 +13°C° 0 mm 1 mps 755 mmHg 54%
    21:00 +12°C° 0 mm 1 mps 755 mmHg 55%
    22:00 +11°C° 0 mm 1 mps 755 mmHg 56%
    23:00 +11°C° 0 mm 1 mps 755 mmHg 57%

    Tomorrow, 29 May, Tuesday

    Time Temperature Precipitation Wind Pressure Humidity
    00:00 +9°C° 0 mm 2 mps 755 mmHg 59%
    01:00 +9°C° 0 mm 2 mps 756 mmHg 61%
    02:00 +8°C° 0 mm 2 mps 756 mmHg 63%
    03:00 +9°C° 0 mm 2 mps 755 mmHg 63%
    04:00 +9°C° 0 mm 2 mps 755 mmHg 63%
    05:00 +10°C° 0 mm 2 mps 755 mmHg 62%
    06:00 +13°C° 0 mm 2 mps 755 mmHg 57%
    07:00 +16°C° 0 mm 3 mps 754 mmHg 51%
    08:00 +18°C° 0 mm 3 mps 754 mmHg 45%
    09:00 +19°C° 0 mm 3 mps 754 mmHg 42%
    10:00 +21°C° 0 mm 3 mps 753 mmHg 38%
    11:00 +22°C° 0 mm 3 mps 752 mmHg 34%
    12:00 +22°C° 0 mm 3 mps 752 mmHg 34%
    13:00 +24°C° 0 mm 3 mps 751 mmHg 33%
    14:00 +25°C° 0 mm 4 mps 750 mmHg 32%
    15:00 +25°C° 0 mm 3 mps 749 mmHg 36%
    16:00 +24°C° 0 mm 3 mps 749 mmHg 39%
    17:00 +24°C° 0 mm 3 mps 748 mmHg 43%
    18:00 +21°C° 0 mm 3 mps 747 mmHg 53%
    19:00 +19°C° 0 mm 2 mps 747 mmHg 62%
    20:00 +17°C° 0 mm 2 mps 746 mmHg 72%
    21:00 +17°C° 0 mm 2 mps 746 mmHg 75%
    22:00 +16°C° 0 mm 3 mps 745 mmHg 78%
    23:00 +14°C° 0 mm 3 mps 745 mmHg 81%

    Day after tomorrow, 30 May, Wednesday

    Time Temperature Precipitation Wind Pressure Humidity
    00:00 +14°C° 0 mm 3 mps 745 mmHg 81%
    01:00 +13°C° 0 mm 3 mps 744 mmHg 82%
    02:00 +13°C° 0 mm 3 mps 744 mmHg 82%
    03:00 +13°C° 0 mm 3 mps 743 mmHg 78%
    04:00 +14°C° 0 mm 4 mps 743 mmHg 73%
    05:00 +14°C° 0 mm 4 mps 742 mmHg 69%
    06:00 +17°C° 0 mm 4 mps 742 mmHg 62%
    07:00 +19°C° 0 mm 5 mps 741 mmHg 54%
    08:00 +20°C° 0 mm 5 mps 741 mmHg 47%
    09:00 +22°C° 0 mm 6 mps 740 mmHg 44%
    10:00 +23°C° 0 mm 6 mps 740 mmHg 41%
    11:00 +24°C° 0 mm 7 mps 740 mmHg 38%
    12:00 +24°C° 0 mm 7 mps 739 mmHg 38%
    13:00 +26°C° 0 mm 7 mps 739 mmHg 37%
    14:00 +26°C° 0 mm 7 mps 739 mmHg 36%
    15:00 +24°C° 0 mm 6 mps 739 mmHg 39%
    16:00 +22°C° 0 mm 5 mps 739 mmHg 42%
    17:00 +21°C° 0 mm 4 mps 739 mmHg 45%
    18:00 +19°C° 0 mm 4 mps 739 mmHg 48%
    19:00 +16°C° 0 mm 3 mps 739 mmHg 50%
    20:00 +13°C° 0 mm 3 mps 740 mmHg 53%
    21:00 +12°C° 0 mm 3 mps 740 mmHg 57%
    22:00 +12°C° 0 mm 2 mps 740 mmHg 62%
    23:00 +9°C° 0 mm 2 mps 741 mmHg 66%

    31 May, Thursday

    Time Temperature Precipitation Wind Pressure Humidity
    00:00 +9°C° 0 mm 2 mps 741 mmHg 69%
    01:00 +8°C° 0 mm 2 mps 742 mmHg 72%
    02:00 +8°C° 0 mm 3 mps 742 mmHg 75%
    03:00 +8°C° 0 mm 3 mps 743 mmHg 70%
    04:00 +7°C° 0 mm 4 mps 743 mmHg 66%
    05:00 +7°C° 0 mm 4 mps 744 mmHg 61%
    06:00 +7°C° 0 mm 4 mps 744 mmHg 55%
    07:00 +8°C° 0 mm 4 mps 745 mmHg 50%
    08:00 +8°C° 0 mm 4 mps 745 mmHg 44%
    09:00 +10°C° 0 mm 4 mps 745 mmHg 40%
    10:00 +11°C° 0 mm 4 mps 746 mmHg 37%
    11:00 +12°C° 0 mm 4 mps 746 mmHg 33%
    12:00 +13°C° 0 mm 4 mps 746 mmHg 32%
    13:00 +13°C° 0 mm 4 mps 746 mmHg 31%
    14:00 +14°C° 0 mm 4 mps 746 mmHg 30%
    15:00 +13°C° 0 mm 4 mps 746 mmHg 31%
    16:00 +13°C° 0 mm 4 mps 746 mmHg 32%
    17:00 +13°C° 0 mm 4 mps 746 mmHg 33%
    18:00 +11°C° 0 mm 3 mps 747 mmHg 40%
    19:00 +9°C° 0 mm 3 mps 747 mmHg 47%
    20:00 +8°C° 0 mm 2 mps 748 mmHg 54%
    21:00 +7°C° 0 mm 2 mps 748 mmHg 56%
    22:00 +6°C° 0 mm 2 mps 749 mmHg 57%
    23:00 +3°C° 0 mm 3 mps 749 mmHg 59%

    1 June, Friday

    Time Temperature Precipitation Wind Pressure Humidity
    00:00 +4°C° 0 mm 2 mps 749 mmHg 62%
    01:00 +3°C° 0 mm 2 mps 750 mmHg 64%
    02:00 +2°C° 0 mm 2 mps 750 mmHg 67%
    03:00 +3°C° 0 mm 2 mps 750 mmHg 65%
    04:00 +3°C° 0 mm 2 mps 751 mmHg 63%
    05:00 +3°C° 0 mm 3 mps 751 mmHg 60%
    06:00 +4°C° 0 mm 3 mps 751 mmHg 55%
    07:00 +7°C° 0 mm 3 mps 751 mmHg 50%
    08:00 +8°C° 0 mm 3 mps 752 mmHg 44%
    09:00 +9°C° 0 mm 3 mps 752 mmHg 41%
    10:00 +10°C° 0 mm 3 mps 752 mmHg 39%
    11:00 +11°C° 0 mm 3 mps 752 mmHg 36%
    12:00 +12°C° 0 mm 3 mps 751 mmHg 35%
    13:00 +13°C° 0 mm 3 mps 751 mmHg 33%
    14:00 +14°C° 0 mm 3 mps 751 mmHg 31%
    15:00 +15°C° 0 mm 2 mps 751 mmHg 32%
    16:00 +15°C° 0 mm 2 mps 751 mmHg 33%
    17:00 +15°C° 0 mm 2 mps 750 mmHg 33%
    18:00 +13°C° 0 mm 1 mps 751 mmHg 42%
    19:00 +11°C° 0 mm 1 mps 751 mmHg 50%
    20:00 +8°C° 0 mm 0 mps 751 mmHg 58%
    21:00 +7°C° 0 mm 0 mps 751 mmHg 59%
    22:00 +6°C° 0 mm 0 mps 751 mmHg 61%
    23:00 +5°C° 0 mm 0 mps 752 mmHg 63%

    2 June, Saturday

    Time Temperature Precipitation Wind Pressure Humidity
    00:00 +5°C° 0 mm 1 mps 752 mmHg 64%
    01:00 +5°C° 0 mm 1 mps 752 mmHg 66%
    02:00 +4°C° 0 mm 1 mps 752 mmHg 68%
    03:00 +6°C° 0 mm 1 mps 752 mmHg 66%
    04:00 +7°C° 0 mm 1 mps 752 mmHg 63%
    05:00 +8°C° 0 mm 1 mps 752 mmHg 61%
    06:00 +10°C° 0 mm 1 mps 752 mmHg 54%
    07:00 +13°C° 0 mm 1 mps 752 mmHg 48%
    08:00 +15°C° 0 mm 1 mps 752 mmHg 41%
    09:00 +16°C° 0 mm 1 mps 752 mmHg 38%
    10:00 +19°C° 0 mm 1 mps 752 mmHg 34%
    11:00 +20°C° 0 mm 1 mps 751 mmHg 31%
    12:00 +19°C° 0 mm 2 mps 751 mmHg 30%
    13:00 +20°C° 0 mm 2 mps 750 mmHg 30%
    14:00 +20°C° 0 mm 2 mps 750 mmHg 30%
    15:00 +20°C° 0 mm 2 mps 749 mmHg 32%
    16:00 +20°C° 0 mm 2 mps 749 mmHg 34%
    17:00 +20°C° 0 mm 2 mps 749 mmHg 36%
    18:00 +18°C° 0 mm 2 mps 748 mmHg 45%
    19:00 +16°C° 0 mm 2 mps 748 mmHg 53%
    20:00 +14°C° 0 mm 2 mps 748 mmHg 62%
    21:00 +13°C° 0 mm 2 mps 748 mmHg 63%
    22:00 +12°C° 0 mm 2 mps 748 mmHg 65%
    23:00 +10°C° 0 mm 2 mps 748 mmHg 67%
    Show more